"Pseudo-MPEC" for P10HKOI

Created 2018 Jun 16 1:18:07 UT using Find_Orb

Click here for an explanation of pseudo-MPECs

 
 Astrometry: 
     P10HKOI  C2018 06 11SsAstrometry=(?Y$@yFka^\'!k:A6+RxFMl8=JUJwr,,06+0\F3F51
     P10HKOI  C2018 06 11@(nuM.=no;:Ba-91b=/5I%u3pD,'1c%!7h=T\fpPcW]VCtRiw1d1F51
     P10HKOI  C2018 06 11'jUgKfm5EngfZ#R*Tredacted;obkL_Ek4wx.^CcKn)?])3cpyDNF51
     P10HKOI  C2018 06 11,((!DM')s'ta%w`35)Q`Q4%5qmxhFvR%x.I%5SR=M:v$T/9]:4)YF51
     P10HKOI  C2018 06 12.25238 15 31 40.90 -30 27 46.1                UNEOCPI52
     P10HKOI  C2018 06 12.26640 15 31 39.98 -30 27 42.0                UNEOCPI52
     P10HKOI ^C2018 06 12.33829115 31 35.525-30 27 20.23         20.91GVNEOCP568
     P10HKOI ^C2018 06 12.33923515 31 35.460-30 27 19.98         20.82GVNEOCP568
     P10HKOI ^C2018 06 12.34018115 31 35.392-30 27 19.65         20.82GVNEOCP568
     P10HKOI |C2018 06 15#BMR^YW6A[p14HN;$tpg3S(gBe!Ee'!.see.TFBe7=F-N4/V*LZ$807
     P10HKOI |C2018 06 15BH7P*YLoZKZ;MB$[iFFZcGgl[PHe)iyQ[O[:U*Ndi-amh*mid16+807
     P10HKOI |C2018 06 15#K[%7^.Z79o@NcuX7!w[/^(QhP@RaV]\rCs0,-GEWgt@,2rNEOCP807

Station data:
(568) Mauna Kea  (N19.826116 W155.472200)  US/Hawaii.
(807) Cerro Tololo Observatory, La Serena  (S30.169136 W70.805900)  Chile.
   1.5-m Ritchey-Chrétien.
(F51) Pan-STARRS 1, Haleakala  (N20.707235 W156.255910)  US/Hawaii.
   Observers N. Primak, A. Schultz, S. Watters, J. Thiel, T. Goggia. Measurer
   PS1 Science Consortium. 1.8-m Ritchey-Chrétien + CCD.
(I52) Steward Observatory, Mt. Lemmon Station  (N32.442547 W110.788920)
   US/Arizona.  Observers B. M. Africano, E. J. Christensen, D. C. Fuls, A.
   R. Gibbs, A. D. Grauer, J. A. Johnson, R. A. Kowalski, S. M. Larson, G. J.
   Leonard, R. L. Seaman, F. C. Shelly. 1.0-m reflector + CCD.

Orbital elements:  P10HKOI
   Perihelion 2018 Nov 5.603844 +/- 4.51 TT = 14:29:32 (JD 2458428.103844)
Epoch 2018 Jun 15.0 TT = JDT 2458284.5   Earth MOID: 0.4748   AutoNEOCP
M 313.14527 +/- 2.0                 (J2000 ecliptic)
n   0.32627763 +/- 0.00507          Peri.  347.36039 +/- 0.35
a   2.08967064 +/- 0.0217           Node   341.79673 +/- 0.8
e   0.2890495 +/- 0.0129            Incl.    5.09630 +/- 0.048
P   3.02                   H 19.4   G  0.15   U  9.2  
q 1.48565219 +/- 0.013    Q 2.69368909 +/- 0.0548
From 12 observations 2018 June 11-15; mean residual 0".20
Residuals in arcseconds: 
180611 F51  .06+  .02-    180612 I52  .09-  .29+    180612 568  .18-  .20-    
180611 F51  .10+  .07+    180612 I52  .49+  .22+    180615 807  .12-  .20-    
180611 F51  .00   .04+    180612 568  .16-  .23-    180615 807  .16+  .20-    
180611 F51  .16-  .02-    180612 568  .15-  .26-    180615 807  .03-  .43+    

Ephemerides (geocentric):
Date (UTC) HH   RA              Dec         delta   r     elong  mag " sig PA
---- -- -- --  -------------   -----------  ------ ------ -----  --- ---- ---
2018 06 16 01  15 27 51.773   -30 08 29.68  .84134 1.7968 150.6 21.2  .39  32
2018 06 16 02  15 27 49.435   -30 08 16.70  .84137 1.7967 150.5 21.2  .40  32
2018 06 16 03  15 27 47.102   -30 08 03.72  .84141 1.7966 150.5 21.2  .42  32
2018 06 16 04  15 27 44.773   -30 07 50.73  .84144 1.7964 150.4 21.2  .44  32
2018 06 16 05  15 27 42.448   -30 07 37.73  .84148 1.7963 150.4 21.2  .46  32
2018 06 16 06  15 27 40.127   -30 07 24.73  .84151 1.7961 150.4 21.2  .48  32
2018 06 16 07  15 27 37.810   -30 07 11.72  .84155 1.7960 150.3 21.2  .50  32
2018 06 16 08  15 27 35.498   -30 06 58.70  .84159 1.7958 150.3 21.2  .51  33
2018 06 16 09  15 27 33.190   -30 06 45.68  .84162 1.7957 150.2 21.2  .53  33
2018 06 16 10  15 27 30.886   -30 06 32.66  .84166 1.7955 150.2 21.2  .55  33
2018 06 16 11  15 27 28.586   -30 06 19.62  .84170 1.7954 150.1 21.2  .57  33
2018 06 16 12  15 27 26.291   -30 06 06.59  .84173 1.7952 150.1 21.2  .59  33
2018 06 16 13  15 27 23.999   -30 05 53.54  .84177 1.7951 150.0 21.2  .61  33
2018 06 16 14  15 27 21.712   -30 05 40.49  .84181 1.7950 150.0 21.2  .64  33
2018 06 16 15  15 27 19.430   -30 05 27.44  .84185 1.7948 150.0 21.2  .66  33
2018 06 16 16  15 27 17.151   -30 05 14.38  .84189 1.7947 149.9 21.2  .68  33
2018 06 16 17  15 27 14.877   -30 05 01.31  .84193 1.7945 149.9 21.2  .70  33
2018 06 16 18  15 27 12.607   -30 04 48.24  .84197 1.7944 149.8 21.2  .72  33
2018 06 16 19  15 27 10.342   -30 04 35.17  .84201 1.7942 149.8 21.2  .75  33
2018 06 16 20  15 27 08.081   -30 04 22.09  .84205 1.7941 149.7 21.2  .77  33
2018 06 16 21  15 27 05.824   -30 04 09.00  .84209 1.7939 149.7 21.2  .79  34
2018 06 16 22  15 27 03.571   -30 03 55.91  .84213 1.7938 149.6 21.2  .81  34
2018 06 16 23  15 27 01.323   -30 03 42.81  .84217 1.7936 149.6 21.2  .84  34
2018 06 17 00  15 26 59.079   -30 03 29.71  .84221 1.7935 149.6 21.2  .86  34
2018 06 17 01  15 26 56.839   -30 03 16.60  .84225 1.7934 149.5 21.2  .89  34
2018 06 17 02  15 26 54.604   -30 03 03.49  .84229 1.7932 149.5 21.2  .91  34
2018 06 17 03  15 26 52.373   -30 02 50.37  .84234 1.7931 149.4 21.2  .94  34
2018 06 17 04  15 26 50.146   -30 02 37.25  .84238 1.7929 149.4 21.2  .96  34
2018 06 17 05  15 26 47.923   -30 02 24.12  .84242 1.7928 149.3 21.2  .99  34
2018 06 17 06  15 26 45.705   -30 02 10.99  .84246 1.7926 149.3 21.2  1.0  34
2018 06 17 07  15 26 43.492   -30 01 57.86  .84251 1.7925 149.2 21.2  1.0  34
2018 06 17 08  15 26 41.283   -30 01 44.72  .84255 1.7923 149.2 21.2  1.1  35
2018 06 17 09  15 26 39.078   -30 01 31.57  .84260 1.7922 149.1 21.2  1.1  35
2018 06 17 10  15 26 36.877   -30 01 18.42  .84264 1.7920 149.1 21.2  1.1  35
2018 06 17 11  15 26 34.681   -30 01 05.27  .84268 1.7919 149.1 21.2  1.1  35
2018 06 17 12  15 26 32.489   -30 00 52.11  .84273 1.7918 149.0 21.2  1.2  35
2018 06 17 13  15 26 30.302   -30 00 38.95  .84277 1.7916 149.0 21.2  1.2  35
2018 06 17 14  15 26 28.119   -30 00 25.78  .84282 1.7915 148.9 21.2  1.2  35
2018 06 17 15  15 26 25.940   -30 00 12.61  .84287 1.7913 148.9 21.2  1.3  35
2018 06 17 16  15 26 23.766   -29 59 59.43  .84291 1.7912 148.8 21.2  1.3  35
2018 06 17 17  15 26 21.596   -29 59 46.25  .84296 1.7910 148.8 21.2  1.3  35
2018 06 17 18  15 26 19.431   -29 59 33.07  .84300 1.7909 148.7 21.2  1.4  35
2018 06 17 19  15 26 17.270   -29 59 19.88  .84305 1.7907 148.7 21.2  1.4  36
2018 06 17 20  15 26 15.114   -29 59 06.69  .84310 1.7906 148.7 21.2  1.4  36
2018 06 17 21  15 26 12.961   -29 58 53.49  .84315 1.7904 148.6 21.2  1.4  36
2018 06 17 22  15 26 10.814   -29 58 40.29  .84319 1.7903 148.6 21.2  1.5  36
2018 06 17 23  15 26 08.671   -29 58 27.09  .84324 1.7902 148.5 21.2  1.5  36
2018 06 18 00  15 26 06.532   -29 58 13.88  .84329 1.7900 148.5 21.2  1.5  36